| << 26.8. | 28.8. >> |
|
Windrichtung in Grad |
Windgeschw. in m/s |
Windspitzen in m/s |
Temp.Minima in °C |
Temperatur in °C |
Temp.Maxima in °C |
Luftfeuchte in % |
Luftdruck in hPa |
Taupunkt in °C |
Niederschlag in mm |
|
|---|---|---|---|---|---|---|---|---|---|---|
| ▲ Maxima | 1,8 | 6,4 | 29,0 | 29,5 | 29,8 | 86,7 | 1002,2 | 19,3 | 0,0 | |
| Ø Mittelwert | 148,6 | 0,9 | 2,4 | 21,9 | 22,1 | 22,4 | 68,1 | 998,4 | 16,8 | 0,0 |
| ▼ Minima | 0,1 | 0,5 | 15,2 | 15,3 | 15,5 | 48,5 | 994,8 | 14,7 | 0,0 | |
| ∑ Summe | 0,0 |
| Uhrzeit (MEZ) | Windrichtung in Grad | Windgeschw. in m/s | Windspitzen in m/s | Temp.Minima in °C | Temperatur in °C | Temp.Maxima in °C | Luftfeuchte in % | Luftdruck in hPa | Taupunkt in °C | Niederschlag in mm |
|---|---|---|---|---|---|---|---|---|---|---|
| 00:00 | 120,4 | 1,0 | 3,1 | 17,9 | 18,1 | 18,3 | 77,6 | 1002,2 | 15,5 | 0,0 |
| 00:10 | 96,1 | 0,9 | 2,5 | 17,9 | 18,1 | 18,3 | 77,4 | 1002,1 | 15,5 | 0,0 |
| 00:20 | 107,3 | 0,8 | 2,5 | 17,9 | 18,0 | 18,3 | 77,7 | 1002,1 | 15,5 | 0,0 |
| 00:30 | 118,2 | 0,9 | 2,7 | 17,7 | 17,9 | 18,2 | 78,3 | 1002,2 | 15,4 | 0,0 |
| 00:40 | 116,6 | 1,0 | 3,1 | 17,4 | 17,7 | 18,0 | 79,2 | 1002,2 | 15,4 | 0,0 |
| 00:50 | 102,9 | 0,9 | 2,3 | 17,5 | 17,6 | 17,8 | 79,6 | 1002,0 | 15,4 | 0,0 |
| 01:00 | 111,6 | 0,7 | 2,0 | 17,2 | 17,4 | 17,7 | 79,8 | 1001,9 | 15,4 | 0,0 |
| 01:10 | 115,8 | 0,8 | 2,2 | 16,9 | 17,2 | 17,5 | 80,6 | 1001,7 | 15,3 | 0,0 |
| 01:20 | 118,9 | 0,8 | 1,9 | 16,7 | 16,9 | 17,1 | 81,8 | 1001,6 | 15,2 | 0,0 |
| 01:30 | 134,0 | 0,7 | 1,7 | 16,6 | 16,7 | 16,9 | 82,5 | 1001,5 | 15,2 | 0,0 |
| 01:40 | 137,6 | 0,7 | 1,9 | 16,5 | 16,6 | 17,0 | 83,0 | 1001,5 | 15,3 | 0,0 |
| 01:50 | 136,6 | 0,7 | 2,3 | 16,5 | 16,6 | 16,9 | 83,3 | 1001,5 | 15,3 | 0,0 |
| 02:00 | 124,0 | 0,9 | 2,0 | 16,4 | 16,6 | 16,8 | 83,6 | 1001,4 | 15,3 | 0,0 |
| 02:10 | 126,8 | 0,7 | 2,7 | 16,3 | 16,5 | 16,8 | 83,8 | 1001,4 | 15,2 | 0,0 |
| 02:20 | 117,5 | 0,9 | 2,1 | 16,2 | 16,4 | 16,6 | 84,3 | 1001,3 | 15,2 | 0,0 |
| 02:30 | 132,7 | 0,8 | 2,6 | 16,3 | 16,4 | 16,6 | 84,3 | 1001,2 | 15,2 | 0,0 |
| 02:40 | 126,3 | 1,0 | 2,6 | 16,2 | 16,4 | 16,6 | 84,3 | 1001,1 | 15,2 | 0,0 |
| 02:50 | 118,6 | 1,1 | 3,4 | 16,2 | 16,4 | 16,7 | 84,2 | 1001,0 | 15,2 | 0,0 |
| 03:00 | 122,5 | 1,0 | 2,9 | 16,3 | 16,5 | 16,7 | 83,8 | 1000,9 | 15,1 | 0,0 |
| 03:10 | 127,0 | 1,1 | 2,8 | 16,2 | 16,4 | 16,6 | 84,1 | 1000,7 | 15,1 | 0,0 |
| 03:20 | 132,5 | 1,0 | 3,3 | 16,2 | 16,4 | 16,6 | 83,9 | 1000,6 | 15,1 | 0,0 |
| 03:30 | 130,6 | 0,9 | 2,1 | 16,0 | 16,2 | 16,4 | 84,4 | 1000,6 | 15,0 | 0,0 |
| 03:40 | 134,4 | 1,0 | 2,8 | 15,9 | 16,1 | 16,3 | 85,0 | 1000,6 | 15,0 | 0,0 |
| 03:50 | 138,2 | 0,7 | 2,3 | 15,7 | 16,0 | 16,3 | 85,1 | 1000,8 | 15,0 | 0,0 |
| 04:00 | 133,6 | 0,7 | 2,1 | 15,7 | 15,8 | 16,1 | 85,5 | 1000,7 | 14,9 | 0,0 |
| 04:10 | 127,1 | 0,7 | 2,4 | 15,6 | 15,8 | 16,1 | 85,7 | 1000,6 | 14,9 | 0,0 |
| 04:20 | 123,9 | 0,8 | 2,0 | 15,6 | 15,7 | 16,0 | 85,8 | 1000,4 | 14,9 | 0,0 |
| 04:30 | 143,3 | 0,8 | 2,1 | 15,5 | 15,7 | 16,0 | 85,9 | 1000,4 | 14,9 | 0,0 |
| 04:40 | 128,4 | 1,0 | 2,6 | 15,6 | 15,7 | 15,9 | 86,0 | 1000,5 | 14,8 | 0,0 |
| 04:50 | 121,9 | 0,8 | 2,3 | 15,4 | 15,6 | 15,9 | 86,0 | 1000,5 | 14,8 | 0,0 |
| 05:00 | 114,5 | 0,7 | 2,0 | 15,3 | 15,5 | 15,8 | 86,2 | 1000,5 | 14,7 | 0,0 |
| 05:10 | 138,5 | 0,6 | 1,7 | 15,2 | 15,4 | 15,7 | 86,5 | 1000,5 | 14,7 | 0,0 |
| 05:20 | 123,9 | 0,5 | 1,9 | 15,2 | 15,4 | 15,6 | 86,5 | 1000,4 | 14,7 | 0,0 |
| 05:30 | 121,7 | 0,8 | 2,1 | 15,3 | 15,5 | 15,7 | 86,3 | 1000,3 | 14,7 | 0,0 |
| 05:40 | 152,9 | 0,6 | 1,5 | 15,2 | 15,3 | 15,5 | 86,6 | 1000,2 | 14,7 | 0,0 |
| 05:50 | 131,7 | 0,6 | 1,6 | 15,2 | 15,4 | 15,7 | 86,7 | 1000,1 | 14,7 | 0,0 |
| 06:00 | 133,7 | 0,6 | 1,9 | 15,4 | 15,5 | 15,8 | 86,3 | 1000,1 | 14,8 | 0,0 |
| 06:10 | 129,3 | 0,7 | 2,0 | 15,5 | 15,8 | 16,0 | 85,4 | 1000,2 | 14,8 | 0,0 |
| 06:20 | 123,5 | 0,8 | 2,2 | 15,6 | 15,8 | 16,0 | 85,3 | 1000,2 | 14,8 | 0,0 |
| 06:30 | 108,6 | 1,0 | 2,6 | 15,7 | 15,9 | 16,1 | 85,4 | 1000,1 | 14,8 | 0,0 |
| 06:40 | 109,1 | 0,6 | 2,0 | 15,7 | 16,1 | 16,5 | 84,7 | 1000,1 | 15,1 | 0,0 |
| 06:50 | 118,9 | 0,6 | 1,7 | 16,3 | 16,7 | 17,1 | 83,1 | 1000,0 | 15,4 | 0,0 |
| 07:00 | 130,4 | 0,7 | 1,6 | 16,8 | 17,1 | 17,4 | 82,0 | 999,9 | 15,5 | 0,0 |
| 07:10 | 118,0 | 0,9 | 2,4 | 17,1 | 17,4 | 17,6 | 81,2 | 999,8 | 15,5 | 0,0 |
| 07:20 | 122,5 | 0,9 | 2,1 | 17,2 | 17,4 | 17,6 | 81,1 | 999,8 | 15,5 | 0,0 |
| 07:30 | 129,6 | 0,8 | 2,2 | 17,3 | 17,5 | 17,7 | 80,9 | 999,9 | 15,6 | 0,0 |
| 07:40 | 107,4 | 1,1 | 3,5 | 17,6 | 17,8 | 18,0 | 80,0 | 999,8 | 15,6 | 0,0 |
| 07:50 | 113,1 | 0,9 | 3,2 | 17,6 | 17,8 | 18,0 | 79,7 | 999,8 | 15,6 | 0,0 |
| Uhrzeit (MEZ) | Windrichtung in Grad | Windgeschw. in m/s | Windspitzen in m/s | Temp.Minima in °C | Temperatur in °C | Temp.Maxima in °C | Luftfeuchte in % | Luftdruck in hPa | Taupunkt in °C | Niederschlag in mm |
|---|---|---|---|---|---|---|---|---|---|---|
| 08:00 | 127,3 | 0,7 | 2,7 | 17,7 | 18,1 | 18,4 | 79,1 | 999,8 | 15,8 | 0,0 |
| 08:10 | 124,9 | 0,7 | 2,2 | 18,1 | 18,5 | 18,8 | 77,6 | 999,8 | 15,9 | 0,0 |
| 08:20 | 120,7 | 1,1 | 3,2 | 18,5 | 18,6 | 18,9 | 77,1 | 999,7 | 15,9 | 0,0 |
| 08:30 | 113,2 | 1,1 | 3,5 | 18,5 | 18,8 | 19,0 | 77,1 | 999,5 | 16,0 | 0,0 |
| 08:40 | 133,3 | 1,1 | 3,2 | 18,6 | 18,9 | 19,1 | 76,9 | 999,5 | 16,1 | 0,0 |
| 08:50 | 139,7 | 1,1 | 3,4 | 18,6 | 19,0 | 19,3 | 76,8 | 999,4 | 16,2 | 0,0 |
| 09:00 | 135,4 | 1,2 | 3,5 | 19,1 | 19,3 | 19,4 | 76,2 | 999,2 | 16,2 | 0,0 |
| 09:10 | 122,2 | 1,1 | 3,6 | 19,2 | 19,5 | 19,8 | 75,6 | 999,1 | 16,4 | 0,0 |
| 09:20 | 126,2 | 1,2 | 3,6 | 19,6 | 20,0 | 20,3 | 75,0 | 998,9 | 16,6 | 0,0 |
| 09:30 | 135,8 | 1,3 | 3,8 | 20,2 | 20,6 | 21,0 | 73,2 | 998,8 | 16,8 | 0,0 |
| 09:40 | 140,9 | 1,3 | 3,9 | 20,8 | 21,2 | 21,5 | 70,9 | 998,8 | 16,9 | 0,0 |
| 09:50 | 137,2 | 1,4 | 4,0 | 21,3 | 21,7 | 22,2 | 69,4 | 998,7 | 17,0 | 0,0 |
| 10:00 | 136,3 | 1,6 | 5,0 | 22,0 | 22,4 | 22,6 | 67,7 | 998,5 | 17,2 | 0,0 |
| 10:10 | 135,5 | 1,8 | 5,0 | 22,0 | 22,3 | 22,5 | 67,2 | 998,3 | 17,0 | 0,0 |
| 10:20 | 134,6 | 1,5 | 5,0 | 22,0 | 22,5 | 22,9 | 67,0 | 998,3 | 17,2 | 0,0 |
| 10:30 | 140,0 | 1,4 | 3,9 | 22,7 | 22,9 | 23,1 | 65,8 | 998,3 | 17,3 | 0,0 |
| 10:40 | 131,8 | 1,3 | 3,6 | 22,8 | 23,1 | 23,4 | 65,5 | 998,2 | 17,4 | 0,0 |
| 10:50 | 115,1 | 1,2 | 4,1 | 23,2 | 23,4 | 23,7 | 64,6 | 998,2 | 17,5 | 0,0 |
| 11:00 | 125,4 | 1,2 | 3,9 | 23,3 | 23,6 | 23,9 | 64,1 | 998,0 | 17,5 | 0,0 |
| 11:10 | 132,1 | 1,4 | 4,1 | 23,8 | 24,4 | 24,9 | 61,8 | 997,9 | 17,6 | 0,0 |
| 11:20 | 131,3 | 1,3 | 3,8 | 24,7 | 24,9 | 25,1 | 60,4 | 998,1 | 17,7 | 0,0 |
| 11:30 | 139,6 | 1,4 | 3,5 | 24,3 | 24,7 | 25,0 | 60,6 | 998,0 | 17,6 | 0,0 |
| 11:40 | 138,6 | 1,4 | 3,1 | 24,3 | 24,5 | 24,6 | 61,8 | 997,9 | 17,7 | 0,0 |
| 11:50 | 140,8 | 1,5 | 3,9 | 24,2 | 24,4 | 24,6 | 62,0 | 997,8 | 17,7 | 0,0 |
| 12:00 | 140,7 | 1,4 | 3,8 | 24,2 | 24,4 | 24,8 | 62,2 | 997,7 | 17,8 | 0,0 |
| 12:10 | 128,8 | 1,6 | 4,4 | 24,7 | 25,3 | 25,6 | 60,3 | 997,6 | 18,0 | 0,0 |
| 12:20 | 131,4 | 1,6 | 4,1 | 25,4 | 25,6 | 25,8 | 59,2 | 997,7 | 18,0 | 0,0 |
| 12:30 | 135,3 | 1,4 | 3,8 | 25,6 | 26,0 | 26,3 | 58,2 | 997,7 | 18,2 | 0,0 |
| 12:40 | 143,4 | 1,3 | 3,6 | 26,2 | 26,6 | 26,9 | 56,6 | 997,7 | 18,3 | 0,0 |
| 12:50 | 130,8 | 1,7 | 4,2 | 26,4 | 26,7 | 26,8 | 56,4 | 997,7 | 18,2 | 0,0 |
| 13:00 | 135,9 | 1,3 | 3,6 | 26,5 | 26,8 | 27,1 | 56,3 | 997,7 | 18,3 | 0,0 |
| 13:10 | 143,9 | 1,4 | 4,6 | 27,0 | 27,3 | 27,9 | 54,9 | 997,6 | 18,4 | 0,0 |
| 13:20 | 133,6 | 1,4 | 4,4 | 27,3 | 27,6 | 27,9 | 54,0 | 997,6 | 18,3 | 0,0 |
| 13:30 | 132,6 | 1,3 | 3,9 | 27,4 | 27,7 | 27,8 | 53,4 | 997,4 | 18,2 | 0,0 |
| 13:40 | 138,4 | 1,4 | 3,7 | 27,5 | 27,8 | 27,9 | 53,3 | 997,4 | 18,3 | 0,0 |
| 13:50 | 121,4 | 1,4 | 4,7 | 27,7 | 28,0 | 28,3 | 52,8 | 997,4 | 18,4 | 0,0 |
| 14:00 | 130,2 | 1,3 | 3,2 | 27,8 | 28,0 | 28,2 | 52,7 | 997,3 | 18,4 | 0,0 |
| 14:10 | 127,2 | 1,3 | 3,2 | 27,8 | 28,1 | 28,3 | 52,7 | 997,3 | 18,4 | 0,0 |
| 14:20 | 139,3 | 1,3 | 4,2 | 28,1 | 28,3 | 28,4 | 52,5 | 997,3 | 18,5 | 0,0 |
| 14:30 | 146,9 | 1,1 | 2,9 | 27,9 | 28,2 | 28,6 | 52,5 | 997,4 | 18,5 | 0,0 |
| 14:40 | 141,6 | 1,2 | 3,1 | 28,2 | 28,5 | 28,7 | 51,9 | 997,4 | 18,5 | 0,0 |
| 14:50 | 140,6 | 1,1 | 3,4 | 28,4 | 28,6 | 28,9 | 51,2 | 997,3 | 18,4 | 0,0 |
| 15:00 | 145,9 | 0,9 | 2,7 | 28,6 | 28,8 | 29,0 | 51,1 | 997,3 | 18,6 | 0,0 |
| 15:10 | 121,8 | 0,8 | 2,4 | 28,8 | 29,0 | 29,2 | 51,0 | 997,3 | 18,8 | 0,0 |
| 15:20 | 107,7 | 0,9 | 2,2 | 28,7 | 28,9 | 29,2 | 51,4 | 997,5 | 18,8 | 0,0 |
| 15:30 | 99,3 | 1,0 | 3,2 | 28,4 | 28,7 | 29,1 | 52,0 | 997,6 | 18,8 | 0,0 |
| 15:40 | 100,5 | 0,8 | 2,5 | 28,5 | 28,7 | 28,9 | 52,1 | 997,7 | 18,8 | 0,0 |
| 15:50 | 53,6 | 0,6 | 1,7 | 28,6 | 28,9 | 29,4 | 51,8 | 997,6 | 19,1 | 0,0 |
| Uhrzeit (MEZ) | Windrichtung in Grad | Windgeschw. in m/s | Windspitzen in m/s | Temp.Minima in °C | Temperatur in °C | Temp.Maxima in °C | Luftfeuchte in % | Luftdruck in hPa | Taupunkt in °C | Niederschlag in mm |
|---|---|---|---|---|---|---|---|---|---|---|
| 16:00 | 42,1 | 0,7 | 1,4 | 28,9 | 29,2 | 29,5 | 50,5 | 997,7 | 18,9 | 0,0 |
| 16:10 | 18,2 | 0,7 | 1,9 | 28,8 | 29,1 | 29,5 | 50,4 | 997,7 | 18,7 | 0,0 |
| 16:20 | 258,0 | 0,5 | 1,1 | 28,9 | 29,1 | 29,3 | 50,4 | 997,7 | 18,8 | 0,0 |
| 16:30 | 271,2 | 0,3 | 0,7 | 28,9 | 29,1 | 29,3 | 51,8 | 997,6 | 19,3 | 0,0 |
| 16:40 | 269,3 | 0,4 | 1,1 | 28,9 | 29,1 | 29,3 | 50,1 | 997,5 | 18,7 | 0,0 |
| 16:50 | 269,1 | 0,2 | 0,8 | 28,9 | 29,3 | 29,4 | 49,9 | 997,4 | 18,8 | 0,0 |
| 17:00 | 264,7 | 0,5 | 1,5 | 29,0 | 29,5 | 29,8 | 49,1 | 997,3 | 18,6 | 0,0 |
| 17:10 | 280,1 | 0,4 | 1,3 | 28,8 | 29,0 | 29,2 | 49,2 | 997,1 | 18,2 | 0,0 |
| 17:20 | 231,6 | 0,2 | 0,9 | 28,2 | 28,4 | 28,8 | 50,3 | 997,1 | 18,2 | 0,0 |
| 17:30 | 297,4 | 0,1 | 0,5 | 28,4 | 28,6 | 28,8 | 48,5 | 996,9 | 17,8 | 0,0 |
| 17:40 | 245,2 | 0,4 | 0,7 | 28,3 | 28,7 | 28,9 | 49,8 | 996,8 | 18,2 | 0,0 |
| 17:50 | 248,1 | 0,3 | 0,6 | 27,7 | 27,9 | 28,3 | 51,6 | 996,8 | 18,1 | 0,0 |
| 18:00 | 246,0 | 0,4 | 1,3 | 27,4 | 27,6 | 27,9 | 52,5 | 996,7 | 18,2 | 0,0 |
| 18:10 | 242,8 | 0,4 | 1,6 | 26,7 | 27,2 | 27,5 | 54,9 | 996,7 | 18,4 | 0,0 |
| 18:20 | 234,9 | 0,3 | 1,1 | 26,4 | 26,6 | 26,9 | 55,7 | 996,6 | 18,3 | 0,0 |
| 18:30 | 227,8 | 0,5 | 1,0 | 26,3 | 26,6 | 26,8 | 54,6 | 996,6 | 17,8 | 0,0 |
| 18:40 | 242,7 | 0,5 | 0,7 | 25,8 | 26,1 | 26,5 | 55,7 | 996,6 | 17,7 | 0,0 |
| 18:50 | 242,9 | 0,5 | 0,8 | 25,2 | 25,5 | 25,9 | 57,3 | 996,4 | 17,7 | 0,0 |
| 19:00 | 224,2 | 0,6 | 0,9 | 24,8 | 25,0 | 25,3 | 59,3 | 996,2 | 17,7 | 0,0 |
| 19:10 | 221,2 | 0,6 | 1,0 | 24,4 | 24,5 | 24,8 | 60,5 | 996,2 | 17,6 | 0,0 |
| 19:20 | 220,2 | 0,3 | 0,9 | 24,3 | 24,7 | 25,0 | 58,7 | 996,1 | 17,3 | 0,0 |
| 19:30 | 236,4 | 0,5 | 1,0 | 24,6 | 24,9 | 25,2 | 58,8 | 996,1 | 17,5 | 0,0 |
| 19:40 | 228,1 | 0,3 | 0,9 | 24,4 | 24,6 | 24,8 | 58,5 | 996,1 | 17,2 | 0,0 |
| 19:50 | 232,5 | 0,5 | 1,0 | 24,5 | 24,7 | 24,8 | 57,4 | 996,0 | 16,9 | 0,0 |
| 20:00 | 245,4 | 0,2 | 1,0 | 24,6 | 24,8 | 25,2 | 55,6 | 996,1 | 16,6 | 0,0 |
| 20:10 | 244,7 | 0,6 | 0,8 | 24,5 | 24,8 | 25,1 | 56,9 | 995,9 | 16,8 | 0,0 |
| 20:20 | 236,2 | 0,8 | 1,2 | 24,0 | 24,2 | 24,5 | 58,8 | 995,8 | 16,8 | 0,0 |
| 20:30 | 241,4 | 0,7 | 1,1 | 23,7 | 23,9 | 24,1 | 60,9 | 995,9 | 17,1 | 0,0 |
| 20:40 | 236,7 | 0,6 | 1,1 | 23,5 | 23,7 | 23,9 | 61,1 | 995,7 | 17,0 | 0,0 |
| 20:50 | 236,3 | 0,8 | 1,3 | 23,1 | 23,3 | 23,5 | 62,5 | 995,6 | 16,9 | 0,0 |
| 21:00 | 246,1 | 0,3 | 1,3 | 23,3 | 23,5 | 23,7 | 61,0 | 995,6 | 16,9 | 0,0 |
| 21:10 | 101,4 | 0,3 | 0,7 | 23,4 | 23,6 | 23,7 | 61,9 | 995,1 | 17,2 | 0,0 |
| 21:20 | 246,8 | 0,5 | 0,7 | 23,3 | 23,6 | 23,8 | 61,9 | 995,1 | 17,1 | 0,0 |
| 21:30 | 244,1 | 0,8 | 1,2 | 22,5 | 22,9 | 23,3 | 64,7 | 995,0 | 17,1 | 0,0 |
| 21:40 | 232,8 | 0,6 | 1,1 | 22,2 | 22,3 | 22,5 | 67,1 | 995,1 | 17,2 | 0,0 |
| 21:50 | 225,3 | 0,6 | 1,1 | 22,2 | 22,5 | 22,7 | 66,9 | 995,3 | 17,4 | 0,0 |
| 22:00 | 113,2 | 0,2 | 0,9 | 22,4 | 22,8 | 23,2 | 66,3 | 995,1 | 17,6 | 0,0 |
| 22:10 | 129,2 | 0,1 | 0,8 | 23,0 | 23,2 | 23,4 | 65,5 | 994,9 | 17,8 | 0,0 |
| 22:20 | 215,4 | 0,1 | 0,6 | 23,3 | 23,4 | 23,5 | 65,3 | 994,9 | 18,0 | 0,0 |
| 22:30 | 158,6 | 0,2 | 0,8 | 23,2 | 23,3 | 23,5 | 65,6 | 995,0 | 17,9 | 0,0 |
| 22:40 | 133,2 | 0,4 | 1,4 | 23,1 | 23,4 | 23,6 | 66,0 | 994,8 | 18,0 | 0,0 |
| 22:50 | 128,9 | 0,6 | 1,7 | 23,0 | 23,2 | 23,5 | 66,3 | 995,1 | 17,9 | 0,0 |
| 23:00 | 192,2 | 0,6 | 1,5 | 23,0 | 23,2 | 23,4 | 67,0 | 995,1 | 18,0 | 0,0 |
| 23:10 | 241,9 | 1,6 | 4,0 | 22,3 | 22,7 | 23,2 | 68,7 | 995,5 | 17,8 | 0,0 |
| 23:20 | 246,3 | 1,7 | 6,4 | 22,2 | 22,4 | 22,6 | 69,1 | 996,0 | 17,6 | 0,0 |
| 23:30 | 248,4 | 1,8 | 3,7 | 21,9 | 22,1 | 22,3 | 70,3 | 996,1 | 17,5 | 0,0 |
| 23:40 | 247,4 | 1,6 | 4,0 | 21,8 | 22,0 | 22,2 | 69,1 | 996,1 | 17,2 | 0,0 |
| 23:50 | 241,4 | 1,1 | 2,8 | 21,8 | 22,1 | 22,4 | 68,2 | 996,6 | 17,2 | 0,0 |
| << 26.8. | 28.8. >> |